STARLINK-4529 (53437 NORAD) Tracking and Keplerian Element Data

This shows tracking and keplerian element data for the satellite.

Feedback or suggestion? Click here.




ElementValue
Catalog53437
NameSTARLINK-4529
Epoch Orbit154
Epoch Day229.28573171
Epoch Year2022
RAAN212.3829
Inclination53.2146
Eccentricity0.0020374
Argument of Perigee79.9332
Mean Anonmoly56.0993
Mean Motion16.26492164
Decay Rate0.10447697
L11 53437U 22097BB 22229.28573171 .10447697 12032-4 29024-2 0 9992
L22 53437 53.2146 212.3829 0020374 79.9332 56.0993 16.26492164 1544

Live tracking and technical data element details for STARLINK-4529 (NORAD 53437). STARLINK-4529 can be tracked NOW for your location showing map with azimuth and elevation plus other details from your city location.

Track the satellite on the map from your city or location and see movement details for azimuth, elevation, latitude, longitude, range, height, and movement on the map or in text.







IsCatalogInMostPopularTable: catalog: 53437, numindb: 3
Update: records affected: 1



GetName: 53437 STARLINK-4529

Hit Count: updated at: Thu, 29 Sep 2022 10:41:09 GMT